User: anonymous   Login
Location: *
(33.8649°S, 62.1526°E)
Time: 11:38:14
(UTC+00:00)
Language:

GPS 2-04 Rocket1 - Orbit

View from above orbital plane
View from above orbital plane
View from above satellite
View from above satellite

Ground track
Ground track

The orbit data is extracted from the following two-line orbital elements,

1 20303U 89085B   21102.71502878  .00001457  00000-0  46653-4 0  9997
2 20303  35.6396 288.6470 0092369 319.4219  39.9651 15.28869708713867
Epoch (UTC): 12 April 2021 17:09:38
Eccentricity: 0.0092369
inclination: 35.6396°
perigee height: 416 km
apogee height: 542 km
right ascension of ascending node: 288.6470°
argument of perigee: 319.4219°
revolutions per day: 15.28869708
mean anomaly at epoch: 39.9651°
orbit number at epoch: 71386

The dashed part of the orbit path shows where the satellite is in the earth's shadow,  

DLR